EW8714 Weather Reports


Display with metric or nautical units.
time (UTC)temp
F
wind
direction
speed
MPH
gust
MPH
rain 1hr
in
rain 24hr
in
rain mn
in
humidity
%
barometer
mb
20260831010035 72 160 2.0 4.0 0.00 0.01 0.01 54 1019.1
20260831005525 72 179 1.0 3.0 0.00 0.01 0.01 54 1019.1
20260831005025 72 179 0.0 4.0 0.00 0.01 0.01 53 1019.1
20260831004508 73 179 1.0 7.0 0.00 0.01 0.01 52 1019.2
20260831004008 73 178 4.0 7.0 0.00 0.01 0.01 52 1019.2
20260831003508 74 162 2.0 6.0 0.00 0.01 0.01 52 1019.2
20260831003009 74 163 2.0 7.0 0.00 0.01 0.01 51 1019.2
20260831002504 75 190 3.0 7.0 0.00 0.01 0.01 50 1019.1
20260831002007 76 174 3.0 7.0 0.00 0.01 0.01 47 1019.2
20260831001535 76 163 3.0 6.0 0.00 0.01 0.01 44 1019.2
20260831001025 76 144 3.0 6.0 0.00 0.01 0.01 45 1019.2
20260831000525 76 152 1.0 5.0 0.00 0.01 0.01 45 1019.2
20260831000008 76 167 2.0 4.0 0.00 0.01 0.01 46 1019.2
20260830235507 75 215 0.0 1.0 0.00 0.01 0.01 47 1019.3
20260830235007 75 215 0.0 2.0 0.00 0.01 0.01 45 1019.2
20260830234519 75 215 0.0 3.0 0.00 0.01 0.01 47 1019.2
20260830234008 75 215 1.0 3.0 0.00 0.01 0.01 46 1019.2
20260830233507 75 216 0.0 4.0 0.00 0.01 0.01 46 1019.1
20260830233011 75 217 1.0 4.0 0.00 0.01 0.01 46 1019.2
20260830232515 75 219 1.0 3.0 0.00 0.01 0.01 44 1019.2
20260830232015 75 220 2.0 4.0 0.00 0.01 0.01 45 1019.1
20260830231510 75 221 2.0 4.0 0.00 0.01 0.01 44 1019.0
20260830231012 75 226 1.0 4.0 0.00 0.01 0.01 45 1019.1
20260830230513 75 226 2.0 4.0 0.00 0.01 0.01 44 1019.2
20260830230023 75 250 1.0 2.0 0.00 0.01 0.01 46 1019.3
20260830225508 74 250 0.0 2.0 0.00 0.01 0.01 44 1019.2
20260830225010 74 250 0.0 4.0 0.00 0.01 0.01 48 1019.3
20260830224516 73 250 0.0 5.0 0.00 0.01 0.01 49 1019.3
20260830224010 72 250 3.0 7.0 0.00 0.01 0.01 50 1019.4
20260830223510 71 250 3.0 7.0 0.00 0.01 0.01 53 1019.5
20260830223018 70 276 2.0 6.0 0.00 0.01 0.01 56 1019.8
20260830222511 69 276 2.0 6.0 0.00 0.01 0.01 60 1019.8
20260830222013 69 292 2.0 6.0 0.00 0.01 0.01 60 1019.8
20260830221510 69 292 4.0 7.0 0.00 0.01 0.01 60 1019.7
20260830221010 69 292 4.0 9.0 0.00 0.01 0.01 60 1019.9
20260830220510 69 295 4.0 10.0 0.00 0.01 0.01 62 1019.9
20260830220025 69 304 4.0 12.0 0.00 0.01 0.01 62 1020.1
20260830215515 69 284 7.0 12.0 0.00 0.01 0.01 59 1020.2
20260830215012 68 285 8.0 12.0 0.00 0.01 0.01 60 1020.2
20260830214512 69 293 6.0 14.0 0.00 0.01 0.01 61 1020.2
20260830214011 68 289 9.0 15.0 0.00 0.01 0.01 59 1020.3
20260830213512 68 300 9.0 15.0 0.01 0.01 0.01 61 1020.4
20260830213016 67 296 11.0 17.0 0.01 0.01 0.01 63 1020.4
20260830212514 67 290 10.0 17.0 0.01 0.01 0.01 65 1020.4
20260830212015 67 266 9.0 20.0 0.01 0.01 0.01 64 1020.5
20260830211514 69 268 10.0 23.0 0.01 0.01 0.01 59 1020.5
20260830211014 70 260 10.0 23.0 0.01 0.01 0.01 58 1020.6
20260830210514 70 281 15.0 22.0 0.01 0.01 0.01 56 1020.4
20260830210013 70 343 14.0 22.0 0.01 0.01 0.01 58 1020.3
20260830205512 70 307 12.0 22.0 0.01 0.01 0.01 60 1020.2
20260830205017 69 294 11.0 26.0 0.01 0.01 0.01 67 1020.3
20260830204518 70 294 14.0 26.0 0.01 0.01 0.01 63 1020.3
20260830204018 74 303 14.0 25.0 0.01 0.01 0.01 57 1020.4
20260830203515 77 292 14.0 23.0 0.00 0.00 0.00 44 1019.9
20260830203016 78 321 5.0 11.0 0.00 0.00 0.00 41 1019.5
20260830202515 78 300 4.0 11.0 0.00 0.00 0.00 41 1019.0
20260830202015 79 344 6.0 12.0 0.00 0.00 0.00 40 1018.7
20260830201549 79 359 5.0 14.0 0.00 0.00 0.00 40 1018.7
20260830201019 78 359 6.0 14.0 0.00 0.00 0.00 41 1018.7
20260830200517 78 349 6.0 13.0 0.00 0.00 0.00 42 1018.7
20260830200017 77 288 7.0 13.0 0.00 0.00 0.00 42 1018.8
20260830195517 78 292 6.0 13.0 0.00 0.00 0.00 39 1018.7
20260830195016 82 349 6.0 13.0 0.00 0.00 0.00 34 1018.6
20260830194518 84 83 2.0 5.0 0.00 0.00 0.00 31 1018.5
20260830194012 84 86 2.0 5.0 0.00 0.00 0.00 31 1018.1
20260830193513 84 98 2.0 5.0 0.00 0.00 0.00 31 1017.8
20260830193017 84 161 1.0 5.0 0.00 0.00 0.00 30 1017.7
20260830192517 84 162 2.0 8.0 0.00 0.00 0.00 30 1017.6
20260830192016 84 160 2.0 8.0 0.00 0.00 0.00 31 1017.5
20260830191520 84 123 2.0 6.0 0.00 0.00 0.00 30 1017.3
20260830191022 84 136 2.0 4.0 0.00 0.00 0.00 32 1017.4
20260830190516 84 136 2.0 6.0 0.00 0.00 0.00 30 1017.5
20260830190020 84 158 3.0 7.0 0.00 0.00 0.00 29 1017.7
20260830185515 84 119 2.0 7.0 0.00 0.00 0.00 30 1017.7
20260830185014 83 148 1.0 5.0 0.00 0.00 0.00 29 1017.7
20260830184519 83 148 2.0 7.0 0.00 0.00 0.00 29 1017.8
20260830184019 84 146 2.0 7.0 0.00 0.00 0.00 29 1017.9
20260830183525 84 241 1.0 4.0 0.00 0.00 0.00 30 1017.9
20260830183020 84 270 1.0 4.0 0.00 0.00 0.00 30 1017.9
20260830182519 84 271 1.0 3.0 0.00 0.00 0.00 29 1018.0
20260830182019 84 269 1.0 4.0 0.00 0.00 0.00 30 1017.9
20260830181524 85 268 1.0 4.0 0.00 0.00 0.00 29 1018.0
20260830181023 85 264 1.0 6.0 0.00 0.00 0.00 31 1018.1
20260830180520 84 258 1.0 6.0 0.00 0.00 0.00 31 1018.1
20260830180021 83 240 2.0 9.0 0.00 0.00 0.00 30 1018.2
20260830175521 83 237 3.0 9.0 0.00 0.00 0.00 29 1018.3
20260830175024 83 261 3.0 5.0 0.00 0.00 0.00 29 1018.4
20260830174503 83 260 3.0 5.0 0.00 0.00 0.00 31 1018.3
20260830174001 83 238 1.0 7.0 0.00 0.00 0.00 30 1018.5
20260830173602 84 243 2.0 9.0 0.00 0.00 0.00 30 1018.5
20260830173031 83 238 4.0 9.0 0.00 0.00 0.00 29 1018.6
20260830172524 83 283 5.0 12.0 0.00 0.00 0.00 31 1018.7
20260830172024 82 255 5.0 12.0 0.00 0.00 0.00 30 1018.7
20260830171523 82 297 6.0 12.0 0.00 0.00 0.00 31 1018.8
20260830171024 83 271 6.0 13.0 0.00 0.00 0.00 30 1018.8
20260830170521 82 264 8.0 14.0 0.00 0.00 0.00 32 1018.8
20260830170003 80 301 8.0 14.0 0.00 0.00 0.00 32 1018.8
20260830165506 80 286 6.0 15.0 0.00 0.00 0.00 34 1019.0
20260830165003 80 305 9.0 15.0 0.00 0.00 0.00 33 1019.0
20260830164505 80 297 7.0 15.0 0.00 0.00 0.00 34 1019.0
20260830164007 80 285 9.0 17.0 0.00 0.00 0.00 34 1019.0
20260830163505 80 301 10.0 17.0 0.00 0.00 0.00 32 1019.0
20260830163033 80 282 6.0 18.0 0.00 0.00 0.00 34 1018.9
20260830162530 79 286 11.0 18.0 0.00 0.00 0.00 33 1018.9
20260830162025 79 279 8.0 17.0 0.00 0.00 0.00 34 1019.1
20260830161510 78 283 7.0 16.0 0.00 0.00 0.00 35 1019.2
20260830161009 78 260 7.0 12.0 0.00 0.00 0.00 37 1019.4
20260830160508 77 261 3.0 7.0 0.00 0.00 0.00 39 1019.3
20260830160009 76 269 2.0 7.0 0.00 0.00 0.00 42 1019.2
20260830155508 76 286 3.0 7.0 0.00 0.00 0.00 43 1019.4
20260830155007 75 286 3.0 5.0 0.00 0.00 0.00 47 1019.4
20260830154511 74 286 3.0 5.0 0.00 0.00 0.00 47 1019.4
20260830154011 74 285 3.0 6.0 0.00 0.00 0.00 47 1019.4
20260830153509 73 285 4.0 6.0 0.00 0.00 0.00 47 1019.4
20260830153028 73 281 2.0 6.0 0.00 0.00 0.00 49 1019.5
20260830152514 73 240 2.0 6.0 0.00 0.00 0.00 50 1019.6
20260830152009 72 237 3.0 6.0 0.00 0.00 0.00 51 1019.6
20260830151516 71 200 2.0 5.0 0.00 0.00 0.00 51 1019.4
20260830151012 71 199 2.0 3.0 0.00 0.00 0.00 51 1019.3
20260830150508 71 199 1.0 3.0 0.00 0.00 0.00 51 1019.2
20260830150012 71 199 1.0 4.0 0.00 0.00 0.00 53 1019.1
20260830145511 70 199 2.0 4.0 0.00 0.00 0.00 52 1019.2
20260830145011 70 199 2.0 4.0 0.00 0.00 0.00 53 1019.0
20260830144513 70 200 2.0 5.0 0.00 0.00 0.00 53 1019.0
20260830144012 70 201 3.0 5.0 0.00 0.00 0.00 54 1019.0
20260830143509 69 201 3.0 6.0 0.00 0.00 0.00 54 1019.0
20260830143015 69 204 3.0 6.0 0.00 0.00 0.00 55 1019.0
20260830142515 69 207 3.0 7.0 0.00 0.00 0.00 56 1019.0
20260830142009 69 207 2.0 7.0 0.00 0.00 0.00 58 1019.0
20260830141512 68 193 4.0 7.0 0.00 0.00 0.00 58 1019.0
20260830141014 68 188 1.0 4.0 0.00 0.00 0.00 60 1019.0
20260830140511 68 188 0.0 3.0 0.00 0.00 0.00 61 1019.0
20260830140009 68 188 1.0 3.0 0.00 0.00 0.00 60 1019.0
20260830135511 68 188 0.0 2.0 0.00 0.00 0.00 60 1018.9
20260830135011 67 188 0.0 2.0 0.00 0.00 0.00 61 1018.8
20260830134515 66 188 0.0 2.0 0.00 0.00 0.00 63 1018.7
20260830134012 65 188 0.0 2.0 0.00 0.00 0.00 65 1018.8
20260830133517 65 188 0.0 2.0 0.00 0.00 0.00 66 1018.9
20260830133033 64 188 0.0 2.0 0.00 0.00 0.00 67 1018.9
20260830132512 63 188 0.0 2.0 0.00 0.00 0.00 68 1018.9
20260830132011 62 188 0.0 0.0 0.00 0.00 0.00 69 1018.9
20260830131512 62 188 0.0 1.0 0.00 0.00 0.00 69 1019.0
20260830131014 62 188 0.0 2.0 0.00 0.00 0.00 70 1018.9
20260830130511 62 213 0.0 2.0 0.00 0.00 0.00 71 1018.9
20260830130013 62 213 0.0 2.0 0.00 0.00 0.00 70 1018.9
20260830125514 62 213 0.0 2.0 0.00 0.00 0.00 70 1018.8
20260830125015 62 213 0.0 0.0 0.00 0.00 0.00 71 1018.7
20260830124515 62 213 0.0 0.0 0.00 0.00 0.00 70 1018.6
20260830124015 62 213 0.0 2.0 0.00 0.00 0.00 71 1018.7
20260830123513 62 213 0.0 2.0 0.00 0.00 0.00 71 1018.7
20260830123014 62 213 0.0 3.0 0.00 0.00 0.00 73 1018.5
20260830122514 62 213 1.0 3.0 0.00 0.00 0.00 72 1018.4
20260830122017 63 213 1.0 4.0 0.00 0.00 0.00 71 1018.4
20260830121516 63 213 1.0 4.0 0.00 0.00 0.00 72 1018.2
20260830121016 62 213 2.0 4.0 0.00 0.00 0.00 74 1018.2
20260830120516 62 213 0.0 2.0 0.00 0.00 0.00 71 1018.0
20260830120014 63 213 1.0 2.0 0.00 0.00 0.00 70 1018.1
20260830115516 63 213 0.0 2.0 0.00 0.00 0.00 70 1017.9
20260830115012 64 213 0.0 1.0 0.00 0.00 0.00 69 1017.9
20260830114519 64 213 0.0 2.0 0.00 0.00 0.00 69 1017.9
20260830114017 64 213 0.0 2.0 0.00 0.00 0.00 68 1018.0
20260830113516 65 213 0.0 2.0 0.00 0.00 0.00 68 1017.9
20260830113014 65 213 0.0 3.0 0.00 0.00 0.00 67 1017.9
20260830112514 65 213 1.0 3.0 0.00 0.00 0.00 66 1017.7
20260830112014 65 221 1.0 3.0 0.00 0.00 0.00 66 1017.7
20260830111513 65 238 1.0 3.0 0.00 0.00 0.00 66 1017.8
20260830111013 65 242 0.0 4.0 0.00 0.00 0.00 64 1017.9
20260830110513 65 243 2.0 4.0 0.00 0.00 0.00 63 1018.0
20260830110016 66 243 1.0 3.0 0.00 0.00 0.00 63 1017.9
20260830105520 66 243 0.0 2.0 0.00 0.00 0.00 62 1017.9
20260830105016 66 243 0.0 2.0 0.00 0.00 0.00 60 1017.9
20260830104516 66 243 0.0 2.0 0.00 0.00 0.00 57 1017.9
20260830104016 66 243 0.0 2.0 0.00 0.00 0.00 56 1017.9
20260830103516 66 243 0.0 0.0 0.00 0.00 0.00 55 1017.9
20260830103021 67 243 0.0 0.0 0.00 0.00 0.00 54 1017.8
20260830102521 67 243 0.0 0.0 0.00 0.00 0.00 54 1017.8
20260830102019 67 243 0.0 0.0 0.00 0.00 0.00 53 1017.7
20260830101518 67 243 0.0 1.0 0.00 0.00 0.00 54 1017.8
20260830101018 67 243 0.0 2.0 0.00 0.00 0.00 53 1017.9
20260830100518 67 243 0.0 2.0 0.00 0.00 0.00 53 1017.9
20260830100026 68 243 0.0 2.0 0.00 0.00 0.00 52 1017.9
20260830095522 67 243 0.0 3.0 0.00 0.00 0.00 52 1017.8
20260830095018 67 243 1.0 4.0 0.00 0.00 0.00 52 1017.9
20260830094550 67 243 2.0 4.0 0.00 0.00 0.00 53 1018.0
20260830094022 67 243 0.0 2.0 0.00 0.00 0.00 53 1017.9
20260830093526 67 243 0.0 3.0 0.00 0.00 0.00 53 1018.0
20260830093022 67 243 1.0 3.0 0.00 0.00 0.00 53 1017.9
20260830092523 67 243 1.0 3.0 0.00 0.00 0.00 52 1017.7
20260830092025 67 243 1.0 3.0 0.00 0.00 0.00 52 1017.5
20260830091525 67 243 1.0 3.0 0.00 0.00 0.00 52 1017.7
20260830091026 67 243 1.0 4.0 0.00 0.00 0.00 53 1017.7
20260830090523 67 243 2.0 4.0 0.00 0.00 0.00 54 1017.7
20260830090040 66 244 2.0 4.0 0.00 0.00 0.00 54 1017.8
20260830085526 66 244 2.0 6.0 0.00 0.00 0.00 56 1017.7
20260830085022 65 244 3.0 7.0 0.00 0.00 0.00 58 1017.8
20260830084523 64 247 3.0 7.0 0.00 0.00 0.00 61 1017.8
20260830084023 64 227 2.0 4.0 0.00 0.00 0.00 64 1018.0
20260830083522 64 226 1.0 2.0 0.00 0.00 0.00 65 1017.9
20260830083006 64 226 0.0 3.0 0.00 0.00 0.00 64 1017.9
20260830082508 64 226 0.0 4.0 0.00 0.00 0.00 64 1017.8
20260830082005 65 226 2.0 4.0 0.00 0.00 0.00 63 1017.9
20260830081506 65 226 0.0 3.0 0.00 0.00 0.00 62 1017.9
20260830081006 65 226 1.0 4.0 0.00 0.00 0.00 61 1017.8
20260830080506 66 226 2.0 6.0 0.00 0.00 0.00 62 1017.9
20260830080025 66 226 2.0 6.0 0.00 0.00 0.00 62 1017.9
20260830075511 65 226 2.0 7.0 0.00 0.00 0.00 63 1018.1
20260830075010 65 220 4.0 7.0 0.00 0.00 0.00 65 1018.2
20260830074508 64 184 1.0 4.0 0.00 0.00 0.00 66 1018.1
20260830074008 64 183 0.0 4.0 0.00 0.00 0.00 66 1018.0
20260830073508 64 183 0.0 4.0 0.00 0.00 0.00 66 1018.0
20260830073011 64 182 2.0 4.0 0.00 0.00 0.00 65 1018.1
20260830072509 64 181 2.0 4.0 0.00 0.00 0.00 65 1018.1
20260830072008 64 180 2.0 4.0 0.00 0.00 0.00 64 1018.2
20260830071517 64 179 0.0 2.0 0.00 0.00 0.00 63 1018.2
20260830071012 65 179 0.0 3.0 0.00 0.00 0.00 64 1018.3
20260830070516 65 179 0.0 3.0 0.00 0.00 0.00 63 1018.3
20260830070012 65 179 0.0 4.0 0.00 0.00 0.00 63 1018.3
20260830065517 65 180 1.0 4.0 0.00 0.00 0.00 62 1018.4
20260830065010 65 180 1.0 3.0 0.00 0.00 0.00 62 1018.6
20260830064533 65 181 1.0 3.0 0.00 0.00 0.00 61 1018.7
20260830064010 65 181 0.0 3.0 0.00 0.00 0.00 61 1018.8
20260830063510 65 182 1.0 4.0 0.00 0.00 0.00 61 1018.9
20260830063016 65 183 0.0 4.0 0.00 0.00 0.00 61 1018.9
20260830062515 65 191 1.0 4.0 0.00 0.00 0.00 61 1019.0
20260830062012 65 191 0.0 3.0 0.00 0.00 0.00 60 1018.9
20260830061513 65 191 0.0 3.0 0.00 0.00 0.00 60 1019.0
20260830061012 65 191 0.0 3.0 0.00 0.00 0.00 60 1019.0
20260830060514 65 194 0.0 3.0 0.00 0.00 0.00 59 1019.0
20260830060016 65 194 1.0 5.0 0.00 0.00 0.00 59 1019.1
20260830055514 65 194 3.0 6.0 0.00 0.00 0.00 59 1019.0
20260830055016 65 190 4.0 6.0 0.00 0.00 0.00 59 1019.1
20260830054534 65 187 3.0 5.0 0.00 0.00 0.00 59 1019.1
20260830054016 65 188 2.0 6.0 0.00 0.00 0.00 59 1019.2
20260830053513 65 188 3.0 6.0 0.00 0.00 0.00 59 1019.2
20260830053014 65 219 2.0 6.0 0.00 0.00 0.00 59 1019.3
20260830052516 65 219 3.0 6.0 0.00 0.00 0.00 59 1019.3
20260830052013 65 223 3.0 6.0 0.00 0.00 0.00 60 1019.2
20260830051518 65 201 0.0 5.0 0.00 0.00 0.00 60 1019.3
20260830051017 65 244 2.0 5.0 0.00 0.00 0.00 60 1019.4
20260830050516 65 260 1.0 4.0 0.00 0.00 0.00 60 1019.1
20260830050016 65 262 0.0 2.0 0.00 0.00 0.00 60 1019.1
20260830045516 66 264 0.0 3.0 0.00 0.00 0.00 59 1019.2
20260830045015 66 264 0.0 3.0 0.00 0.00 0.00 58 1019.3
20260830044525 66 266 1.0 3.0 0.00 0.00 0.00 58 1019.4
20260830044020 66 267 0.0 3.0 0.00 0.00 0.00 58 1019.5
20260830043524 66 268 1.0 3.0 0.00 0.00 0.00 58 1019.6
20260830043020 66 270 0.0 3.0 0.00 0.00 0.00 58 1019.7
20260830042520 66 270 0.0 2.0 0.00 0.00 0.00 57 1019.6
20260830042021 66 270 1.0 2.0 0.00 0.00 0.00 57 1019.7
20260830041525 66 271 0.0 2.0 0.00 0.00 0.00 58 1019.7
20260830041017 66 271 0.0 3.0 0.00 0.00 0.00 59 1019.7
20260830040517 65 271 1.0 3.0 0.00 0.00 0.00 60 1019.9
20260830040022 65 271 0.0 1.0 0.00 0.00 0.00 60 1020.0
20260830035521 65 271 0.0 1.0 0.00 0.00 0.00 61 1019.9
20260830035026 65 271 0.0 1.0 0.00 0.00 0.00 61 1019.9
20260830034522 65 271 0.0 3.0 0.00 0.00 0.00 62 1019.9
20260830034022 65 271 1.0 3.0 0.00 0.00 0.00 62 1019.7
20260830033522 66 270 0.0 3.0 0.00 0.00 0.00 62 1019.8
20260830033020 66 271 0.0 2.0 0.00 0.00 0.00 60 1019.9
20260830032520 67 271 0.0 2.0 0.00 0.00 0.00 57 1019.9
20260830032025 67 271 0.0 4.0 0.00 0.00 0.00 56 1019.9
20260830031521 68 271 0.0 6.0 0.00 0.00 0.00 58 1019.6
20260830031121 68 271 2.0 6.0 0.00 0.00 0.00 56 1019.7
20260830030520 68 63 0.0 2.0 0.00 0.00 0.00 54 1019.8
20260830030028 68 63 0.0 3.0 0.00 0.00 0.00 54 1019.6
20260830025521 68 63 1.0 5.0 0.00 0.00 0.00 54 1019.6
20260830025020 69 63 1.0 8.0 0.00 0.00 0.00 55 1019.7
20260830024532 69 62 2.0 8.0 0.00 0.00 0.00 54 1019.5
20260830024025 69 58 2.0 7.0 0.00 0.00 0.00 54 1019.4
20260830023528 69 60 3.0 7.0 0.00 0.00 0.00 54 1019.4
20260830023021 69 67 3.0 9.0 0.00 0.00 0.00 54 1019.4
20260830022521 70 63 3.0 9.0 0.00 0.00 0.00 53 1019.3
20260830022026 70 44 3.0 6.0 0.00 0.00 0.00 53 1019.2
20260830021600 70 44 2.0 5.0 0.00 0.00 0.00 54 1019.3
20260830021100 70 6 2.0 7.0 0.00 0.00 0.00 54 1019.5
20260830020559 70 360 2.0 9.0 0.00 0.00 0.00 54 1019.6
20260830020026 71 6 3.0 9.0 0.00 0.00 0.00 53 1019.4
20260830015522 71 25 4.0 11.0 0.00 0.00 0.00 52 1019.0
20260830015025 72 20 4.0 14.0 0.00 0.00 0.00 52 1018.9
20260830014523 72 9 4.0 16.0 0.00 0.00 0.00 51 1018.8
20260830014023 74 88 6.0 16.0 0.00 0.00 0.00 49 1018.7
20260830013526 76 47 7.0 14.0 0.00 0.00 0.00 44 1018.8
20260830013007 80 7 5.0 9.0 0.00 0.00 0.00 36 1018.5
20260830012511 81 83 4.0 8.0 0.00 0.00 0.00 35 1017.8
20260830012007 81 108 5.0 8.0 0.00 0.00 0.00 33 1017.5
20260830011505 81 136 4.0 6.0 0.00 0.00 0.00 33 1017.4
20260830011006 81 142 3.0 5.0 0.00 0.00 0.00 32 1017.4
20260830010506 82 169 2.0 4.0 0.00 0.00 0.00 33 1017.3